Location: Briis
(48.6240°N, 2.1211°E)
Time: 15:24:40
(UTC+00:00)

Cosmos 2322 Rocket - Pass Details

Date: 25 September 2020
Orbit: 831 x 852 km, 71.0° (Epoch: 22 October)

Event Time Altitude Azimuth Distance (km) Brightness Sun altitude
Exits shadow 02:54:11 30° 153° (SSE) 1,481 3.4 -27.2°
Maximum altitude 02:56:17 41° 108° (ESE) 1,212 3.2 -26.9°
Drops below altitude 10° 03:01:35 10° 40° (NE) 2,487 5.5 -26.2°
Sets 03:04:10 0° 33° (NNE) 3,429 6.4 -25.8°
